Date String (YYYY-MM-DD hh:mm:ss) UTC,Instrument flags,Ambient pressure (hPa),Sample flow (lpm),Bypass flow (lpm),Sample temperature (°C),Ambient temperature (°C),ASC tube jacket temperature (°C),LED temperature (°C),Box temperature (°C),Sample RH (%),Span deviation,Mass concentration (μg/m³),Mass concentration (μg/m³),Mass concentration (μg/m³)
DateTimeUTC,F1_M11,P_M11,Q1_M11,Q2_M11,T1_M11,T2_M11,T3_M11,T4_M11,T5_M11,U1_M11,ZSPAN_M11,X0_M11,X2_M11,X1_M11
2022-03-01 10:00:00,,0827.7,5.01,0.00,25.6,24.9,00.0,34.6,27.5,07.8,0000.0,0002.28,0001.02,0000.61
2022-03-01 10:01:00,,0827.7,5.01,0.00,25.6,24.9,00.0,34.6,27.5,07.8,0000.0,0002.20,0001.01,0000.61
2022-03-01 10:02:00,,0827.7,5.00,0.00,25.6,24.9,00.0,34.6,27.5,07.8,0000.0,0002.08,0000.96,0000.60
2022-03-01 10:03:00,,0827.7,4.99,0.00,25.6,24.9,00.0,34.6,27.5,07.8,0000.0,0002.14,0000.98,0000.59
2022-03-01 10:04:00,,0827.7,4.99,0.00,25.6,24.9,00.0,34.6,27.4,07.9,0000.0,0002.03,0000.95,0000.58
2022-03-01 10:05:00,,0827.7,5.01,0.00,25.6,24.9,00.0,34.6,27.4,07.9,0000.0,0001.96,0000.95,0000.58
2022-03-01 10:06:00,,0827.7,5.01,0.00,25.6,24.9,00.0,34.6,27.4,07.9,0000.0,0002.01,0000.97,0000.58
2022-03-01 10:07:00,,0827.7,4.98,0.00,25.6,25.0,00.0,34.6,27.4,07.8,0000.0,0001.90,0000.96,0000.57
2022-03-01 10:08:00,,0827.7,5.01,0.00,25.6,24.9,00.0,34.6,27.5,07.9,0000.0,0001.78,0000.96,0000.58
2022-03-01 10:09:00,,0827.7,5.01,0.00,25.6,24.9,00.0,34.6,27.5,07.9,0000.0,0001.61,0000.97,0000.58
2022-03-01 10:10:00,,0827.7,4.98,0.00,25.6,24.9,00.0,34.6,27.5,07.9,0000.0,0001.56,0000.96,0000.59
2022-03-01 10:11:00,,0827.7,5.00,0.00,25.6,24.9,00.0,34.6,27.5,08.0,0000.0,0001.74,0000.99,0000.59
2022-03-01 10:12:00,,0827.7,5.00,0.00,25.6,24.9,00.0,34.6,27.5,08.0,0000.0,0003.23,0001.05,0000.60
2022-03-01 10:13:00,,0827.7,5.00,0.00,25.6,24.9,00.0,34.6,27.5,07.9,0000.0,0003.81,0001.07,0000.60
2022-03-01 10:14:00,,0827.7,5.00,0.00,25.7,24.9,00.0,34.6,27.5,07.9,0000.0,0003.81,0001.07,0000.59
2022-03-01 10:15:00,,0827.7,5.00,0.00,25.7,24.9,00.0,34.6,27.5,07.9,0000.0,0003.89,0001.11,0000.60
2022-03-01 10:16:00,,0827.7,5.01,0.00,25.7,24.9,00.0,34.6,27.5,08.0,0000.0,0004.00,0001.15,0000.61
2022-03-01 10:17:00,,0827.7,4.99,0.00,25.7,25.0,00.0,34.6,27.5,07.9,0000.0,0003.91,0001.12,0000.62
2022-03-01 10:18:00,,0827.7,5.01,0.00,25.7,25.0,00.0,34.6,27.6,07.9,0000.0,0003.95,0001.13,0000.63
2022-03-01 10:19:00,,0827.7,5.01,0.00,25.7,25.0,00.0,34.6,27.6,07.8,0000.0,0003.97,0001.14,0000.63
2022-03-01 10:20:00,,0827.7,4.98,0.00,25.7,25.0,00.0,34.7,27.6,07.8,0000.0,0004.09,0001.18,0000.64
2022-03-01 10:21:00,,0827.7,5.00,0.00,25.7,25.0,00.0,34.7,27.6,07.9,0000.0,0004.14,0001.21,0000.64
2022-03-01 10:22:00,,0827.7,5.01,0.00,25.7,25.0,00.0,34.7,27.6,07.9,0000.0,0004.10,0001.20,0000.63
2022-03-01 10:23:00,,0827.7,5.00,0.00,25.7,25.0,00.0,34.7,27.6,07.9,0000.0,0002.70,0001.19,0000.64
2022-03-01 10:24:00,,0827.7,5.00,0.00,25.7,25.0,00.0,34.7,27.6,07.9,0000.0,0002.32,0001.21,0000.65
2022-03-01 10:25:00,,0827.7,5.01,0.00,25.8,25.0,00.0,34.7,27.6,07.8,0000.0,0002.25,0001.19,0000.66
2022-03-01 10:26:00,,0827.7,4.98,0.00,25.8,25.0,00.0,34.7,27.6,07.7,0000.0,0002.22,0001.15,0000.65
2022-03-01 10:27:00,,0827.7,5.00,0.00,25.8,25.1,00.0,34.7,27.6,07.7,0000.0,0003.19,0001.11,0000.64
2022-03-01 10:28:00,,0827.7,5.01,0.00,25.8,25.1,00.0,34.7,27.6,07.7,0000.0,0003.63,0001.13,0000.63
2022-03-01 10:29:00,,0827.8,4.98,0.00,25.8,25.1,00.0,34.7,27.6,07.7,0000.0,0003.72,0001.15,0000.62
2022-03-01 10:30:00,,0827.8,5.00,0.00,25.8,25.1,00.0,34.7,27.6,07.8,0000.0,0003.80,0001.19,0000.63
2022-03-01 10:31:00,,0827.7,5.01,0.00,25.8,25.1,00.0,34.7,27.6,07.8,0000.0,0003.76,0001.15,0000.62
2022-03-01 10:32:00,,0827.7,5.00,0.00,25.8,25.1,00.0,34.7,27.6,07.8,0000.0,0003.72,0001.11,0000.61
2022-03-01 10:33:00,,0827.7,5.00,0.00,25.8,25.1,00.0,34.7,27.6,07.8,0000.0,0003.55,0001.09,0000.61
2022-03-01 10:34:00,,0827.7,4.99,0.00,25.8,25.1,00.0,34.7,27.6,07.9,0000.0,0003.55,0001.08,0000.61
2022-03-01 10:35:00,,0827.8,5.00,0.00,25.8,25.1,00.0,34.7,27.6,07.9,0000.0,0003.59,0001.08,0000.61
2022-03-01 10:36:00,,0827.8,5.00,0.00,25.8,25.1,00.0,34.7,27.6,07.8,0000.0,0003.64,0001.10,0000.62
2022-03-01 10:37:00,,0827.8,5.01,0.00,25.8,25.1,00.0,34.7,27.6,07.8,0000.0,0004.73,0001.10,0000.63
2022-03-01 10:38:00,,0827.8,5.00,0.00,25.8,25.1,00.0,34.7,27.6,07.9,0000.0,0003.74,0001.10,0000.62
2022-03-01 10:39:00,,0827.8,5.00,0.00,25.8,25.1,00.0,34.7,27.6,07.9,0000.0,0003.24,0001.08,0000.62
2022-03-01 10:40:00,,0827.8,5.00,0.00,25.8,25.1,00.0,34.7,27.6,07.9,0000.0,0003.62,0001.06,0000.62
2022-03-01 10:41:00,,0827.8,5.00,0.00,25.7,25.1,00.0,34.7,27.6,07.9,0000.0,0004.38,0001.01,0000.62
2022-03-01 10:42:00,,0827.8,5.00,0.00,25.7,25.1,00.0,34.7,27.6,07.9,0000.0,0004.31,0001.01,0000.63
2022-03-01 10:43:00,,0827.8,5.00,0.00,25.7,25.0,00.0,34.7,27.5,07.9,0000.0,0004.34,0001.04,0000.63
2022-03-01 10:44:00,,0827.8,5.00,0.00,25.7,25.0,00.0,34.7,27.5,07.9,0000.0,0004.30,0001.03,0000.63
2022-03-01 10:45:00,,0827.8,5.00,0.00,25.7,25.0,00.0,34.7,27.5,07.9,0000.0,0004.17,0001.01,0000.63
2022-03-01 10:46:00,,0828.0,5.00,0.00,25.7,25.0,00.0,34.7,27.5,08.0,0000.0,0004.13,0001.00,0000.63
2022-03-01 10:47:00,,0827.9,5.00,0.00,25.7,25.0,00.0,34.7,27.5,08.0,0000.0,0004.02,0000.96,0000.62
2022-03-01 10:48:00,,0827.9,4.99,0.00,25.7,24.9,00.0,34.7,27.5,08.0,0000.0,0002.94,0000.97,0000.61
2022-03-01 10:49:00,,0827.9,5.00,0.00,25.7,24.9,00.0,34.7,27.5,08.0,0000.0,0003.00,0000.99,0000.61
2022-03-01 10:50:00,,0827.8,5.00,0.00,25.7,24.9,00.0,34.7,27.5,08.0,0000.0,0003.17,0001.03,0000.62
2022-03-01 10:51:00,,0827.8,5.01,0.00,25.6,24.9,00.0,34.7,27.5,08.0,0000.0,0002.88,0001.01,0000.62
2022-03-01 10:52:00,,0827.8,5.00,0.00,25.6,24.8,00.0,34.7,27.4,08.1,0000.0,0001.74,0000.99,0000.62
2022-03-01 10:53:00,,0827.9,5.01,0.00,25.6,24.8,00.0,34.6,27.4,08.0,0000.0,0001.72,0000.99,0000.61
2022-03-01 10:54:00,,0827.9,4.99,0.00,25.6,24.8,00.0,34.6,27.3,08.0,0000.0,0001.67,0000.97,0000.62
2022-03-01 10:55:00,,0827.9,5.01,0.00,25.5,24.8,00.0,34.6,27.3,07.9,0000.0,0001.73,0000.99,0000.63
2022-03-01 10:56:00,,0828.0,4.99,0.00,25.5,24.8,00.0,34.6,27.3,07.9,0000.0,0001.73,0000.97,0000.62
2022-03-01 10:57:00,,0827.9,5.00,0.00,25.5,24.8,00.0,34.6,27.3,07.8,0000.0,0001.71,0000.97,0000.62
2022-03-01 10:58:00,,0827.9,5.00,0.00,25.5,24.8,00.0,34.6,27.3,07.8,0000.0,0001.73,0000.98,0000.61
2022-03-01 10:59:00,,0828.0,4.99,0.00,25.6,24.9,00.0,34.6,27.4,07.8,0000.0,0001.76,0000.98,0000.60
